CW5398 Weather Reports


Display with metric or nautical units.
time (UTC)temp
F
wind
direction
speed
MPH
gust
MPH
rain 1hr
in
rain 24hr
in
rain mn
in
humidity
%
barometer
mb
20260505173016 55 270 0.0 2.0 0.00 0.00 0.00 100 1015.2
20260505172016 54 265 0.0 0.0 0.00 0.00 0.00 100 1015.3
20260505171016 54 265 0.0 0.0 0.00 0.00 0.00 100 1015.3
20260505170016 54 270 0.0 2.0 0.00 0.00 0.00 100 1015.3
20260505165056 54 270 0.0 1.0 0.00 0.00 0.00 100 1015.3
20260505164036 54 265 0.0 0.0 0.00 0.00 0.00 100 1015.2
20260505163016 54 265 0.0 0.0 0.00 0.00 0.00 100 1015.2
20260505162036 54 265 0.0 0.0 0.00 0.00 0.00 100 1015.1
20260505161016 53 265 0.0 0.0 0.00 0.00 0.00 100 1015.0
20260505153016 53 265 0.0 0.0 0.00 0.00 0.00 100 1014.9
20260505152016 53 265 0.0 0.0 0.00 0.00 0.00 100 1014.8
20260505151016 53 265 0.0 0.0 0.00 0.00 0.00 100 1014.6
20260505125016 51 265 0.0 0.0 0.00 0.00 0.00 100 1013.4
20260505124016 51 265 0.0 0.0 0.00 0.00 0.00 100 1013.3
20260505123036 50 252 0.0 0.0 0.00 0.00 0.00 100 1013.3
20260505122016 50 252 0.0 0.0 0.00 0.00 0.00 100 1013.3
20260505121016 50 252 0.0 0.0 0.00 0.00 0.00 100 1013.0
20260505120016 50 252 0.0 0.0 0.00 0.00 0.00 100 1013.0
20260505115015 49 252 0.0 0.0 0.00 0.00 0.00 100 1012.8
20260505114015 49 252 0.0 0.0 0.00 0.00 0.00 100 1012.7
20260505113015 49 252 0.0 0.0 0.00 0.00 0.00 100 1012.7
20260505112036 49 252 0.0 0.0 0.00 0.00 0.00 100 1012.6
20260505111015 48 252 0.0 0.0 0.00 0.00 0.00 100 1012.4
20260505102015 48 252 0.0 0.0 0.00 0.00 0.00 100 1012.2
20260505101016 48 252 0.0 0.0 0.00 0.00 0.00 100 1012.2
20260505100016 48 252 0.0 0.0 0.00 0.00 0.00 100 1012.2
20260505095055 48 252 0.0 0.0 0.00 0.00 0.00 100 1012.2
20260505094015 48 252 0.0 0.0 0.00 0.00 0.00 100 1012.1
20260505093035 48 252 0.0 0.0 0.00 0.00 0.00 100 1012.1
20260505092055 48 252 0.0 0.0 0.00 0.00 0.00 100 1012.0
20260505091035 48 252 0.0 0.0 0.00 0.00 0.00 100 1011.9
20260505090015 48 252 0.0 0.0 0.00 0.00 0.00 100 1011.9
20260505085017 48 252 0.0 0.0 0.00 0.00 0.00 100 1011.7
20260505084037 49 252 0.0 0.0 0.00 0.00 0.00 100 1011.6
20260505083017 49 252 0.0 0.0 0.00 0.00 0.00 100 1011.6
20260505082037 49 252 0.0 0.0 0.00 0.00 0.00 100 1011.6
20260505081017 49 252 0.0 0.0 0.00 0.00 0.00 100 1011.5
20260505080017 49 252 0.0 0.0 0.00 0.00 0.00 100 1011.6
20260505075016 50 252 0.0 0.0 0.00 0.00 0.00 100 1011.4
20260505074017 50 252 0.0 0.0 0.00 0.00 0.00 100 1011.2
20260505073017 50 252 0.0 0.0 0.00 0.00 0.00 100 1011.2
20260505072037 50 252 0.0 0.0 0.00 0.00 0.00 99 1011.2
20260505071017 51 252 0.0 0.0 0.00 0.00 0.00 98 1010.8
20260505070017 51 252 0.0 0.0 0.00 0.00 0.00 98 1010.9
20260505065036 51 252 0.0 0.0 0.00 0.00 0.00 98 1010.7
20260505064017 52 252 0.0 0.0 0.00 0.00 0.00 97 1010.7
20260505063017 52 252 0.0 0.0 0.00 0.00 0.00 97 1010.7
20260505062016 53 252 0.0 0.0 0.00 0.00 0.00 96 1010.6
20260505061016 53 252 0.0 0.0 0.00 0.00 0.00 95 1010.4
20260505060016 53 252 0.0 0.0 0.00 0.00 0.00 94 1010.3
20260505055016 54 252 0.0 0.0 0.00 0.00 0.00 93 1010.2
20260505054017 54 252 0.0 0.0 0.00 0.00 0.00 93 1010.2
20260505053016 55 252 0.0 0.0 0.00 0.00 0.00 93 1010.2
20260505052017 55 252 0.0 0.0 0.00 0.00 0.00 92 1010.1
20260505051016 55 252 0.0 0.0 0.00 0.00 0.00 92 1009.7
20260505041017 59 252 0.0 0.0 0.00 0.00 0.00 86 1009.1
20260505040036 59 252 0.0 0.0 0.00 0.00 0.00 84 1009.1
20260505035016 60 252 0.0 0.0 0.00 0.00 0.00 83 1009.1
20260505034016 61 252 0.0 0.0 0.00 0.00 0.00 82 1009.0
20260505033016 62 252 0.0 0.0 0.00 0.00 0.00 79 1009.0
20260505032016 63 252 0.0 0.0 0.00 0.00 0.00 77 1008.8
20260505031016 64 252 0.0 0.0 0.00 0.00 0.00 75 1008.7
20260505030016 65 248 1.0 5.0 0.00 0.00 0.00 74 1008.7
20260505025017 66 252 0.0 0.0 0.00 0.00 0.00 73 1008.5
20260505024036 66 252 0.0 0.0 0.00 0.00 0.00 75 1008.5
20260505023016 67 252 0.0 0.0 0.00 0.00 0.00 73 1008.5
20260505022016 67 248 0.0 1.0 0.00 0.00 0.00 70 1008.5
20260505021036 67 248 0.0 1.0 0.00 0.00 0.00 69 1008.7
20260505020016 68 248 0.0 1.0 0.00 0.00 0.00 68 1008.7
20260505015016 69 248 1.0 4.0 0.00 0.00 0.00 67 1009.0
20260505014016 70 248 0.0 1.0 0.00 0.00 0.00 68 1009.0
20260505013016 70 248 0.0 1.0 0.00 0.00 0.00 67 1009.0
20260505012016 70 252 0.0 0.0 0.00 0.00 0.00 68 1009.1
20260505011016 71 248 0.0 1.0 0.00 0.00 0.00 67 1009.1
20260505010036 71 248 0.0 1.0 0.00 0.00 0.00 66 1009.1
20260505005016 71 248 0.0 4.0 0.00 0.00 0.00 65 1009.1
20260505004016 72 248 0.0 3.0 0.00 0.00 0.00 65 1009.2
20260505003017 72 248 1.0 4.0 0.00 0.00 0.00 65 1009.2
20260505002016 72 248 0.0 4.0 0.00 0.00 0.00 63 1009.2
20260505001016 73 248 1.0 4.0 0.00 0.00 0.00 62 1009.1
20260505000016 72 248 0.0 2.0 0.00 0.00 0.00 62 1009.1
20260504235015 72 248 0.0 3.0 0.00 0.00 0.00 62 1009.2
20260504234035 72 248 0.0 3.0 0.00 0.00 0.00 63 1009.3
20260504233016 72 248 0.0 1.0 0.00 0.00 0.00 63 1009.3
20260504232016 72 248 1.0 8.0 0.00 0.00 0.00 60 1009.3
20260504231015 72 248 1.0 7.0 0.00 0.00 0.00 61 1009.5
20260504230015 73 248 1.0 4.0 0.00 0.00 0.00 59 1009.5
20260504225016 73 248 1.0 8.0 0.00 0.00 0.00 60 1009.6
20260504224015 75 248 3.0 9.0 0.00 0.00 0.00 59 1009.6
20260504223036 76 203 1.0 4.0 0.00 0.00 0.00 59 1009.6
20260504222016 76 203 1.0 4.0 0.00 0.00 0.00 60 1009.6
20260504221015 76 203 1.0 6.0 0.00 0.00 0.00 59 1009.7
20260504220036 76 203 2.0 6.0 0.00 0.00 0.00 61 1009.7
20260504215015 76 203 2.0 7.0 0.00 0.00 0.00 60 1009.8
20260504214015 76 203 1.0 6.0 0.00 0.00 0.00 59 1010.1
20260504213035 75 203 1.0 6.0 0.00 0.00 0.00 61 1010.1
20260504212044 75 203 1.0 7.0 0.00 0.00 0.00 59 1010.1
20260504211015 75 203 3.0 7.0 0.00 0.00 0.00 61 1010.1
20260504210035 74 203 2.0 6.0 0.00 0.00 0.00 63 1010.0
20260504205015 74 203 1.0 6.0 0.00 0.00 0.00 61 1010.1
20260504204036 74 203 2.0 7.0 0.00 0.00 0.00 56 1010.1
20260504203035 74 203 2.0 7.0 0.00 0.00 0.00 58 1010.1
20260504202015 74 203 1.0 7.0 0.00 0.00 0.00 62 1010.0
20260504201015 74 203 3.0 8.0 0.00 0.00 0.00 59 1010.1
20260504200015 74 225 3.0 7.0 0.00 0.00 0.00 60 1010.1
20260504195017 75 248 2.0 8.0 0.00 0.00 0.00 60 1010.0
20260504194017 75 248 1.0 5.0 0.00 0.00 0.00 56 1010.1
20260504193017 74 248 0.0 3.0 0.00 0.00 0.00 55 1010.1
20260504192017 74 248 1.0 6.0 0.00 0.00 0.00 59 1010.1
20260504191017 73 248 1.0 6.0 0.00 0.00 0.00 58 1010.1
20260504190017 72 248 0.0 4.0 0.00 0.00 0.00 60 1010.1
20260504185017 73 248 1.0 5.0 0.00 0.00 0.00 60 1010.1
20260504184017 73 248 1.0 4.0 0.00 0.00 0.00 62 1010.2
20260504183017 73 248 1.0 5.0 0.00 0.00 0.00 61 1010.2
20260504182017 74 248 1.0 6.0 0.00 0.00 0.00 61 1010.4
20260504181017 74 248 1.0 4.0 0.00 0.00 0.00 59 1010.3
20260504180017 72 248 0.0 1.0 0.00 0.00 0.00 60 1010.2
20260504175017 71 248 1.0 4.0 0.00 0.00 0.00 64 1010.2
20260504174037 69 248 1.0 5.0 0.00 0.00 0.00 65 1010.2